DW6451 Weather Reports


Display with metric or nautical units.
time (UTC)temp
F
wind
direction
speed
MPH
gust
MPH
rain 1hr
in
rain 24hr
in
rain mn
in
humidity
%
barometer
mb
20260903170100 77 27 2.0 6.0 0.00 0.00 0.00 70 1011.6
20260903164557 77 80 0.0 6.0 0.00 0.00 0.00 67 1011.9
20260903163055 77 106 1.0 5.0 0.00 0.00 0.00 68 1012.0
20260903161555 75 69 1.0 5.0 0.00 0.00 0.00 71 1012.0
20260903160051 75 44 1.0 5.0 0.00 0.00 0.00 71 1012.1
20260903154546 73 49 0.0 5.0 0.00 0.00 0.00 75 1012.1
20260903153044 73 325 0.0 4.0 0.00 0.00 0.00 76 1012.3
20260903151557 72 44 0.0 5.0 0.00 0.00 0.00 79 1012.2
20260903150047 72 23 1.0 4.0 0.00 0.00 0.00 82 1012.3
20260903144539 71 16 0.0 4.0 0.00 0.00 0.00 80 1012.3
20260903143039 71 27 1.0 5.0 0.00 0.00 0.00 78 1012.4
20260903141539 70 70 0.0 3.0 0.00 0.00 0.00 79 1012.4
20260903140030 68 70 0.0 4.0 0.00 0.00 0.00 83 1012.5
20260903134526 66 82 0.0 2.0 0.00 0.00 0.00 87 1012.6
20260903133022 64 82 0.0 1.0 0.00 0.00 0.00 94 1012.8
20260903131519 62 82 0.0 2.0 0.00 0.00 0.00 97 1012.6
20260903130023 60 82 0.0 1.0 0.00 0.00 0.00 98 1012.7
20260903124516 59 82 0.0 0.0 0.00 0.00 0.00 98 1012.5
20260903123016 58 82 0.0 0.0 0.00 0.00 0.00 98 1012.5
20260903121517 57 82 0.0 0.0 0.00 0.00 0.00 97 1012.6
20260903120011 57 82 0.0 0.0 0.00 0.00 0.00 96 1012.5
20260903114508 57 82 0.0 0.0 0.00 0.00 0.00 96 1012.4
20260903113038 57 82 0.0 0.0 0.00 0.00 0.00 96 1012.1
20260903111533 57 82 0.0 0.0 0.00 0.00 0.00 96 1011.9
20260903110034 57 82 0.0 0.0 0.00 0.00 0.00 96 1012.0
20260903104533 57 82 0.0 0.0 0.00 0.00 0.00 96 1012.1
20260903103031 57 82 0.0 0.0 0.00 0.00 0.00 96 1012.1
20260903101541 58 82 0.0 0.0 0.00 0.00 0.00 96 1012.1
20260903100033 58 82 0.0 0.0 0.00 0.00 0.00 95 1011.8
20260903094527 58 82 0.0 0.0 0.00 0.00 0.00 95 1011.8
20260903093037 58 82 0.0 0.0 0.00 0.00 0.00 95 1011.7
20260903091526 58 82 0.0 0.0 0.00 0.00 0.00 95 1011.5
20260903090024 59 82 0.0 0.0 0.00 0.00 0.00 95 1011.5
20260903084530 59 82 0.0 0.0 0.00 0.00 0.00 95 1011.5
20260903083025 59 82 0.0 0.0 0.00 0.00 0.00 94 1011.6
20260903081520 60 82 0.0 0.0 0.00 0.00 0.00 95 1011.7
20260903080036 60 82 0.0 0.0 0.00 0.00 0.00 95 1011.7
20260903074517 60 82 0.0 0.0 0.00 0.00 0.00 95 1011.7
20260903073022 60 82 0.0 0.0 0.00 0.00 0.00 95 1011.6
20260903071516 60 82 0.0 0.0 0.00 0.00 0.00 94 1011.7
20260903070017 60 82 0.0 0.0 0.00 0.00 0.00 94 1012.1
20260903064512 60 82 0.0 0.0 0.00 0.00 0.00 93 1012.1
20260903063011 61 82 0.0 0.0 0.00 0.00 0.00 93 1012.2
20260903061514 61 82 0.0 0.0 0.00 0.00 0.00 92 1012.1
20260903060009 61 82 0.0 0.0 0.00 0.00 0.00 92 1012.3
20260903054510 61 82 0.0 0.0 0.00 0.00 0.00 91 1011.9
20260903053005 62 82 0.0 0.0 0.00 0.00 0.00 91 1012.0
20260903051506 62 82 0.0 0.0 0.00 0.00 0.00 90 1012.0
20260903050003 62 82 0.0 0.0 0.00 0.00 0.00 90 1012.0
20260903044602 63 82 0.0 0.0 0.00 0.00 0.00 89 1012.0
20260903043101 63 82 0.0 0.0 0.00 0.00 0.00 88 1011.9
20260903041612 64 82 0.0 0.0 0.00 0.00 0.00 87 1011.7
20260903040120 64 82 0.0 0.0 0.00 0.00 0.00 87 1011.7
20260903034602 64 82 0.0 0.0 0.00 0.00 0.00 86 1011.6
20260903033058 65 82 0.0 0.0 0.00 0.00 0.00 84 1011.6
20260903031600 65 82 0.0 0.0 0.00 0.00 0.00 83 1011.6
20260903030058 66 82 0.0 0.0 0.00 0.00 0.00 82 1011.5
20260903024557 67 82 0.0 0.0 0.00 0.00 0.00 80 1011.5
20260903023056 67 82 0.0 0.0 0.00 0.00 0.00 79 1011.3
20260903021558 68 82 0.0 0.0 0.00 0.00 0.00 78 1011.3
20260903020056 69 82 0.0 0.0 0.00 0.00 0.00 75 1011.3
20260903014556 69 82 0.0 0.0 0.00 0.00 0.00 73 1011.2
20260903013055 70 82 0.0 0.0 0.00 0.00 0.00 71 1011.1
20260903011555 71 82 0.0 0.0 0.00 0.00 0.00 69 1010.9
20260903010054 72 82 0.0 0.0 0.00 0.00 0.00 67 1010.8
20260903004557 73 82 0.0 0.0 0.00 0.00 0.00 65 1010.7
20260903003053 74 82 0.0 0.0 0.00 0.00 0.00 63 1010.7
20260903001602 75 82 0.0 1.0 0.00 0.00 0.00 62 1010.7
20260903000052 75 82 0.0 1.0 0.00 0.00 0.00 61 1010.6
20260902234550 76 90 0.0 5.0 0.00 0.00 0.00 60 1010.6
20260902233050 77 91 0.0 5.0 0.00 0.00 0.00 59 1010.5
20260902231550 78 85 0.0 2.0 0.00 0.00 0.00 58 1010.4
20260902230051 78 81 1.0 3.0 0.00 0.00 0.00 57 1010.5
20260902224555 79 80 1.0 4.0 0.00 0.00 0.00 56 1010.3
20260902223050 80 67 0.0 4.0 0.00 0.00 0.00 56 1010.2
20260902221551 80 97 1.0 7.0 0.00 0.00 0.00 55 1010.2
20260902220054 81 209 0.0 5.0 0.00 0.00 0.00 55 1010.1
20260902214545 81 350 2.0 7.0 0.00 0.00 0.00 54 1010.2
20260902213049 82 101 0.0 4.0 0.00 0.00 0.00 53 1010.2
20260902211544 83 5 2.0 5.0 0.00 0.00 0.00 52 1010.2
20260902210043 82 22 1.0 5.0 0.00 0.00 0.00 54 1010.2
20260902204542 83 338 1.0 5.0 0.00 0.00 0.00 53 1010.3
20260902203041 82 30 1.0 4.0 0.00 0.00 0.00 55 1010.4
20260902201542 82 19 1.0 7.0 0.00 0.00 0.00 54 1010.4
20260902200038 82 74 1.0 6.0 0.00 0.00 0.00 55 1010.4
20260902194543 81 342 1.0 5.0 0.00 0.00 0.00 58 1010.5
20260902193035 81 355 1.0 5.0 0.00 0.00 0.00 57 1010.6
20260902191538 79 340 1.0 6.0 0.00 0.00 0.00 58 1010.7
20260902190049 79 42 2.0 7.0 0.00 0.00 0.00 58 1010.8
20260902184532 79 355 3.0 7.0 0.00 0.00 0.00 58 1010.8
20260902183037 80 334 1.0 9.0 0.00 0.00 0.00 61 1010.8
20260902181532 80 325 2.0 6.0 0.00 0.00 0.00 57 1010.8
20260902180037 81 44 1.0 6.0 0.00 0.00 0.00 59 1011.0
20260902174531 81 5 2.0 4.0 0.00 0.00 0.00 57 1011.1
20260902173037 81 40 0.0 3.0 0.00 0.00 0.00 58 1011.2
20260902171535 81 5 1.0 5.0 0.00 0.00 0.00 60 1011.0